LiveATC.Net - Listen to live air traffic control over the Internet!

Find LiveATC Audio Streams


Airport/ARTCC Code

Frequency Search
(e.g., 124.400, 128.75)
Site-wide search
 


Browse LiveATC Feeds
LiveATC Coverage Map
Top 50 LiveATC Feeds
Bad Weather Areas

LiveATC FAQ
Offer a LiveATC Feed
Contact LiveATC.net
Press Inquiries

LiveATC on iPhone
LiveATC on Android

Windows Phone
Windows 8/10

LiveATC Mobile
(Mobile browser)

ATC Audio Archives
Interesting Recordings

LiveATC Forums

Home Page
About LiveATC.net
Make a Donation
Terms of Use
Privacy Policy

Canadian Air Freqs

AIRMETs/SIGMETs

FAA Airport Status
Nat'l Airspace Status
Arrival Demand Charts


Server Software By:
Icecast.org
Liquidsoap

Select an area of interest:
U.S. Feeds: Class B Airports | Class C Airports | Class D/Other Airports | ARTCC (Centers)
International Feeds: Canada | Europe | Oceania | Asia | South America | North/Central America | Africa
Misc Feeds: HF Feeds
Search by ICAO/IATA airport code:   (e.g., kbos, kjfk, lax, eham, etc.)


Currently Available Live Feeds: 2234
Status Updated: Tue May 22 2018 23:09:01 UTC


NOTICE

Unauthorized use prohibited. See LiveATC.net Terms of Service

Africa Airport Feeds

 

FIMP Twr/App/Ctr #1 (Archives)
Plaine Magnien, Mauritius

Feed Status: UP

Click on your favorite media player to listen:
Listen with WinAmp to FIMP Twr/App/Ctr #1  Listen with iTunes to FIMP Twr/App/Ctr #1  Click here to listen if using Real Player  Click here to listen if using Windows Media Player

Or simply listen in your browser:

Listen right in your browser(in browser, requires Flash)

FIMP 222300Z 11011KT 9999 SCT016 24/20 Q1020


Listeners: 0 out of 766 total

FIMP Approach: 119.100
FIMP Tower: 118.100
FMEE Approach/Departure: 127.200
Mauritius Centre: 129.300

FIMP Twr/App/Ctr #2 (Archives)
Plaine Magnien, Mauritius

Feed Status: UP

Click on your favorite media player to listen:
Listen with WinAmp to FIMP Twr/App/Ctr #2  Listen with iTunes to FIMP Twr/App/Ctr #2  Click here to listen if using Real Player  Click here to listen if using Windows Media Player

Or simply listen in your browser:

Listen right in your browser(in browser, requires Flash)

FIMP 222300Z 11011KT 9999 SCT016 24/20 Q1020


Listeners: 0 out of 766 total

FIMP Approach: 119.100
FIMP Tower: 118.100
Mauritius Centre: 129.300

FMEE Tower
Sainte-Marie, Reunion

Feed Status: DOWN
Offline since: 2018-01-10 18:36:02 UTC
FMEE 222230Z AUTO 13011KT 9999 NCD 23/18 Q1020 TEMPO 4500 SHRA

Gillot Tower: 118.400

FMEP Info
Saint-Pierre, Reunion

Feed Status: DOWN
Offline since: 2018-01-14 14:26:06 UTC
FMEP 222230Z AUTO 02007KT 350V060 9999 FEW028 20/12 Q1020

Saint-Pierre Info: 122.400

FMMI Twr/App/Center (Archives)
Antananarivo, Madagascar

Feed Status: UP

Click on your favorite media player to listen:
Listen with WinAmp to FMMI Twr/App/Center  Listen with iTunes to FMMI Twr/App/Center  Click here to listen if using Real Player  Click here to listen if using Windows Media Player

Or simply listen in your browser:

Listen right in your browser(in browser, requires Flash)

FMMI 222230Z 16008KT 9999 BKN020 15/12 Q1025 NOSIG


Listeners: 0 out of 766 total

Ivato Approach: 125.700
Ivato Tower: 120.100
Tana Control: 128.900

GOOY Tower/Control
Dakar, Senegal

Feed Status: DOWN
Offline since: 2018-05-18 08:46:02 UTC
GOOY 222200Z 36010KT 8000 NSC 21/19 Q1013

Dakar Control: 120.500
Dakar Tower: 118.100

HKJK Gnd/Twr/Radar (Archives)
Nairobi, Kenya

Feed Status: UP

Click on your favorite media player to listen:
Listen with WinAmp to HKJK Gnd/Twr/Radar  Listen with iTunes to HKJK Gnd/Twr/Radar  Click here to listen if using Real Player  Click here to listen if using Windows Media Player

Or simply listen in your browser:

Listen right in your browser(in browser, requires Flash)

HKJK 222230Z 00000KT 9999 SCT016 BKN090 17/16 Q1023


Listeners: 0 out of 766 total

Nairobi Ground: 121.600
Nairobi Radar: 122.300
Nairobi Tower: 118.700
Wilson Airport Tower: 118.100